Weather in Calp

Spain     38°39′11″N   0°02′43″E
temp.,
°C
wind,
m/s
gust,
m/s
humid.,
%
clouds,
%
prec.,
mm/h
press.,
hPa
HPBL,
m
7 may, fri
fri723:00+17sw44714 0.0 101670
02:00+18wsw3359100 0.0 101524
05:00+18w225057 0.0 101515
08:00+19wnw22485 0.0 101615
11:00+25ne22340 0.0 1017870
14:00+24e42403 0.0 1017767
17:00+24se44414 0.0 1016627
20:00+22s46510 0.0 1016224
8 may, sat
sat823:00+19ssw33460 0.0 101722
02:00+17n11610 0.0 101714
05:00+15nnw11684 0.0 101711
08:00+17nnw11705 0.0 101724
11:00+22ese2254100 0.0 1017437
14:00+23se4551100 0.0 1016532
17:00+23sse564345 0.0 1013499
20:00+22sse2343100 0.0 1012102
9 may, sun
sun923:00+18s2251100 0.0 101215
02:00+17nnw335620 0.0 101130
05:00+16nnw3472100 0.0 100988
08:00+18nnw1165100 0.0 100955
11:00+21s2557100 0.0 1009697
14:00+22s410582 0.4 1007891
17:00+23s815541 0.1 1004833
20:00+19nnw68731 0.1 1007641
10 may, mon
mon1023:00+16nnw22730 0.0 100931
02:00+17wnw336036 0.0 101029
05:00+17s3368100 0.3 101197
08:00+15s3486100 1.2 1012189
11:00+15ssw2377100 0.1 1012389
14:00+20sse555152 0.1 10111428
17:00+20s665711 0.1 1009953
20:00+17nnw136246 0.9 1010372
11 may, tue
tue1123:00+17wsw3362100 0.3 101176
02:00+16wnw465385 0.3 1012261
05:00+14w355796 0.0 1013267
08:00+13w48570 0.0 1014733
11:00+16wnw812405 0.0 10161921
14:00+19wnw812305 0.0 10162383
17:00+21wnw9142234 0.0 10152887
20:00+19wnw611290 0.0 10181633